World > North America > United States > Iowa > Newkirk

Hourly Newkirk, IA Regional Weather

Feedback E-mail the Weather

Quick WX

Newkirk, IA Weather Maps

°F °C°F °C
Newkirk Weather Map
UTC Time: 8/10/2022, 17:06
Your Time:

Newkirk, IA Regional Weather

Expires:202208101800;;800863
ASUS43 KDMX 101706
RWRIA 

WEATHER ROUNDUP FOR IOWA
NATIONAL WEATHER SERVICE DES MOINES IA
1200 PM CDT WED AUG 10 2022

NOTE: "FAIR" INDICATES FEW OR NO CLOUDS BELOW 12,000 FEET WITH NO
SIGNIFICANT WEATHER AND/OR OBSTRUCTIONS TO VISIBILITY.

* - THESE STATIONS ARE NOT NWS STATIONS...THUS NOT UNDER NWS
QUALITY CONTROL.  THEY ALSO DO NOT REPORT WEATHER SUCH 
AS PRECIPITATION OR FOG.  


IAZ001>003-012>014-020>022-031>034-043>046-101800-
   NORTHWEST IOWA
  
CITY           SKY/WX    TMP DP  RH WIND       PRES   REMARKS
CARROLL *      SUNNY     82  64  54 CALM      30.20S HX  84           
CHEROKEE *     SUNNY     86  63  45 S6        30.19S HX  87           
DENISON *      SUNNY     84  68  58 CALM      30.22S HX  87           
LE MARS *      SUNNY     86  68  54 S9G15     30.17R HX  89           
MAURICE *      FAIR      84  72  65 S9        30.17  HX  89           
SHELDON *      SUNNY     82  72  69 SE6       30.18S HX  87           
SIOUX CITY     SUNNY     87  68  52 CALM      30.17S HX  90           
SPENCER        SUNNY     85  67  54 VRB3      30.20S HX  87           
STORM LAKE *   SUNNY     81  68  65 VRB3      30.21S HX  83           
$$
 

SKY/WX - Weather  TMP - Temperature  DP - Dew Point  RH - Humidity
WIND - Wind Direction/Speed PRES - Barometric Pressure VSB - Visibility
WCI - Wind Chill Index E13G22 Wind - East Wind 13 mph/Gusts of 22 mph

Trending Headlines

Newkirk Radar Loop



Newkirk Quick Facts


National Two Day Weather Forecast


E-mail the Newkirk Weather Forecast

Voice your opinion or tell us about page issues...